{"data":{"norad_id":66330,"intl_designator":"2025-253M","name":"STARLINK-35512","alt_names":[],"object_type":"PAYLOAD","status":"ACTIVE","operator":null,"country":"US","launch_date":"2025-11-06","launch_site_code":"AFETR","launch_vehicle":null,"mission":null,"orbit_class":"UNKNOWN","rcs_meters":null,"size_class":null,"mass_kg":null,"dimensions":null,"purposes":["comms"],"wikipedia_slug":null,"has_3d_model":false,"image_url":null,"decayed_at":null,"tle_current":{"epoch":"2026-09-20T05:21:22.704480Z","epoch_age_seconds":120640,"freshness":"FRESH","line1":"1 66330U 25253M   26263.22317945  .00012655  00000+0  46845-3 0  9995","line2":"2 66330  42.9988 194.0792 0001073 274.9260  85.1469 15.27591123 49993","mean_motion":15.27591123,"eccentricity":0.0001073,"inclination_deg":42.9988,"raan_deg":194.0792,"arg_perigee_deg":274.926,"mean_anomaly_deg":85.1469,"bstar":0.00046845,"rev_number":4999,"period_min":94.266062319871,"perigee_km":482.27958828391,"apogee_km":483.75199167264,"semimajor_km":6861.1527899783,"source":"CELESTRAK","updated_at":"2026-09-21T09:00:35.874997Z"}}}